Hourly Weather Bolshie Kuzmenki

Today, 20 June, Sunday

Time Temperature Precipitation Wind Pressure Humidity
00:00 +19°C° 0 mm 1 mps 750 mmHg 89%
01:00 +18°C° 0 mm 1 mps 750 mmHg 89%
02:00 +18°C° 0 mm 1 mps 750 mmHg 90%
03:00 +19°C° 0 mm 1 mps 750 mmHg 89%
04:00 +19°C° 0 mm 1 mps 750 mmHg 89%
05:00 +20°C° 0 mm 1 mps 750 mmHg 88%
06:00 +21°C° 0 mm 1 mps 750 mmHg 83%
07:00 +22°C° 0 mm 1 mps 750 mmHg 78%
08:00 +24°C° 0 mm 2 mps 750 mmHg 73%
09:00 +25°C° 0 mm 2 mps 750 mmHg 69%
10:00 +26°C° 0 mm 2 mps 750 mmHg 64%
11:00 +27°C° 0 mm 3 mps 750 mmHg 60%
12:00 +27°C° 0 mm 3 mps 750 mmHg 58%
13:00 +27°C° 0 mm 3 mps 749 mmHg 57%
14:00 +27°C° 0 mm 3 mps 749 mmHg 55%
15:00 +27°C° 0 mm 2 mps 749 mmHg 59%
16:00 +27°C° 0 mm 2 mps 749 mmHg 63%
17:00 +27°C° 0 mm 2 mps 749 mmHg 67%
18:00 +25°C° 0 mm 2 mps 749 mmHg 72%
19:00 +23°C° 0 mm 1 mps 748 mmHg 78%
20:00 +21°C° 0 mm 1 mps 748 mmHg 83%
21:00 +20°C° 0 mm 2 mps 748 mmHg 85%
22:00 +19°C° 0 mm 2 mps 748 mmHg 87%
23:00 +18°C° 0 mm 2 mps 748 mmHg 89%

Tomorrow, 21 June, Monday

Time Temperature Precipitation Wind Pressure Humidity
00:00 +18°C° 0 mm 2 mps 748 mmHg 89%
01:00 +19°C° 0 mm 1 mps 748 mmHg 89%
02:00 +18°C° 0 mm 1 mps 748 mmHg 89%
03:00 +19°C° 0 mm 1 mps 748 mmHg 88%
04:00 +18°C° 0 mm 2 mps 748 mmHg 88%
05:00 +19°C° 0 mm 2 mps 749 mmHg 87%
06:00 +20°C° 0 mm 2 mps 749 mmHg 82%
07:00 +23°C° 0 mm 2 mps 749 mmHg 78%
08:00 +24°C° 0 mm 3 mps 749 mmHg 73%
09:00 +25°C° 0 mm 3 mps 749 mmHg 69%
10:00 +26°C° 0 mm 3 mps 749 mmHg 66%
11:00 +27°C° 0 mm 3 mps 748 mmHg 62%
12:00 +28°C° 0 mm 3 mps 748 mmHg 61%
13:00 +28°C° 0 mm 3 mps 748 mmHg 61%
14:00 +29°C° 0 mm 3 mps 748 mmHg 60%
15:00 +28°C° 0 mm 3 mps 748 mmHg 64%
16:00 +28°C° 0 mm 3 mps 748 mmHg 68%
17:00 +28°C° 0 mm 3 mps 748 mmHg 72%
18:00 +26°C° 0 mm 3 mps 748 mmHg 77%
19:00 +25°C° 0 mm 3 mps 748 mmHg 82%
20:00 +22°C° 0 mm 3 mps 748 mmHg 86%
21:00 +23°C° 0 mm 2 mps 748 mmHg 88%
22:00 +21°C° 0 mm 2 mps 748 mmHg 90%
23:00 +20°C° 0 mm 2 mps 748 mmHg 91%

Day after tomorrow, 22 June, Tuesday

Time Temperature Precipitation Wind Pressure Humidity
00:00 +20°C° 0 mm 2 mps 748 mmHg 91%
01:00 +20°C° 0 mm 2 mps 748 mmHg 92%
02:00 +19°C° 0 mm 2 mps 748 mmHg 92%
03:00 +20°C° 0 mm 2 mps 748 mmHg 91%
04:00 +20°C° 0 mm 2 mps 748 mmHg 90%
05:00 +21°C° 0 mm 2 mps 748 mmHg 90%
06:00 +22°C° 0 mm 3 mps 748 mmHg 84%
07:00 +25°C° 0 mm 3 mps 748 mmHg 78%
08:00 +26°C° 0 mm 4 mps 748 mmHg 73%
09:00 +27°C° 0 mm 4 mps 748 mmHg 68%
10:00 +28°C° 0 mm 4 mps 748 mmHg 64%
11:00 +29°C° 0 mm 4 mps 749 mmHg 60%
12:00 +30°C° 0 mm 4 mps 748 mmHg 59%
13:00 +30°C° 0 mm 4 mps 748 mmHg 58%
14:00 +32°C° 0 mm 4 mps 748 mmHg 56%
15:00 +30°C° 0 mm 3 mps 748 mmHg 60%
16:00 +30°C° 0 mm 3 mps 748 mmHg 65%
17:00 +29°C° 0 mm 3 mps 748 mmHg 69%
18:00 +28°C° 0 mm 3 mps 748 mmHg 74%
19:00 +26°C° 0 mm 2 mps 748 mmHg 79%
20:00 +24°C° 0 mm 2 mps 748 mmHg 85%
21:00 +23°C° 0 mm 2 mps 748 mmHg 86%
22:00 +23°C° 0 mm 2 mps 748 mmHg 87%
23:00 +21°C° 0 mm 2 mps 748 mmHg 88%

23 June, Wednesday

Time Temperature Precipitation Wind Pressure Humidity
00:00 +20°C° 0 mm 2 mps 748 mmHg 88%
01:00 +20°C° 0 mm 2 mps 748 mmHg 88%
02:00 +21°C° 0 mm 1 mps 748 mmHg 88%
03:00 +20°C° 0 mm 2 mps 748 mmHg 87%
04:00 +21°C° 0 mm 2 mps 748 mmHg 85%
05:00 +21°C° 0 mm 2 mps 748 mmHg 84%
06:00 +24°C° 0 mm 2 mps 748 mmHg 79%
07:00 +25°C° 0 mm 2 mps 748 mmHg 74%
08:00 +27°C° 0 mm 3 mps 748 mmHg 68%
09:00 +28°C° 0 mm 3 mps 748 mmHg 64%
10:00 +29°C° 0 mm 3 mps 748 mmHg 60%
11:00 +30°C° 0 mm 3 mps 748 mmHg 56%
12:00 +31°C° 0 mm 3 mps 748 mmHg 54%
13:00 +31°C° 0 mm 3 mps 748 mmHg 52%
14:00 +31°C° 0 mm 2 mps 748 mmHg 50%
15:00 +31°C° 0 mm 2 mps 748 mmHg 55%
16:00 +31°C° 0 mm 2 mps 748 mmHg 60%
17:00 +30°C° 0 mm 2 mps 748 mmHg 65%
18:00 +28°C° 0 mm 2 mps 748 mmHg 69%
19:00 +27°C° 0 mm 2 mps 748 mmHg 74%
20:00 +25°C° 0 mm 2 mps 748 mmHg 79%
21:00 +24°C° 0 mm 1 mps 748 mmHg 81%
22:00 +23°C° 0 mm 1 mps 748 mmHg 82%
23:00 +23°C° 0 mm 1 mps 748 mmHg 84%

24 June, Thursday

Time Temperature Precipitation Wind Pressure Humidity
00:00 +22°C° 0 mm 1 mps 748 mmHg 85%
01:00 +22°C° 0 mm 1 mps 748 mmHg 86%
02:00 +22°C° 0 mm 1 mps 748 mmHg 86%
03:00 +22°C° 0 mm 1 mps 748 mmHg 86%
04:00 +23°C° 0 mm 1 mps 748 mmHg 86%
05:00 +24°C° 0 mm 1 mps 748 mmHg 85%
06:00 +25°C° 0 mm 1 mps 748 mmHg 81%
07:00 +27°C° 0 mm 1 mps 748 mmHg 76%
08:00 +28°C° 0 mm 1 mps 748 mmHg 72%
09:00 +29°C° 0 mm 1 mps 748 mmHg 67%
10:00 +30°C° 0 mm 1 mps 748 mmHg 62%
11:00 +31°C° 0 mm 1 mps 748 mmHg 58%
12:00 +31°C° 0 mm 1 mps 748 mmHg 55%
13:00 +32°C° 0 mm 1 mps 748 mmHg 52%
14:00 +32°C° 0 mm 1 mps 748 mmHg 50%
15:00 +30°C° 0 mm 0 mps 748 mmHg 53%
16:00 +30°C° 0 mm 0 mps 748 mmHg 57%
17:00 +30°C° 0 mm 0 mps 748 mmHg 61%
18:00 +28°C° 0 mm 0 mps 748 mmHg 64%
19:00 +28°C° 0 mm 1 mps 747 mmHg 67%
20:00 +26°C° 0 mm 1 mps 747 mmHg 70%
21:00 +26°C° 0 mm 1 mps 747 mmHg 72%
22:00 +23°C° 0 mm 0 mps 747 mmHg 74%
23:00 +22°C° 0 mm 0 mps 747 mmHg 76%

25 June, Friday

Time Temperature Precipitation Wind Pressure Humidity
00:00 +22°C° 0 mm 0 mps 747 mmHg 78%
01:00 +21°C° 0 mm 0 mps 747 mmHg 79%
02:00 +21°C° 0 mm 0 mps 747 mmHg 81%
03:00 +22°C° 0 mm 0 mps 747 mmHg 81%
04:00 +24°C° 0 mm 1 mps 747 mmHg 80%
05:00 +25°C° 0 mm 1 mps 747 mmHg 80%
06:00 +26°C° 0 mm 1 mps 747 mmHg 76%
07:00 +27°C° 0 mm 1 mps 747 mmHg 71%
08:00 +29°C° 0 mm 1 mps 747 mmHg 67%
09:00 +30°C° 0 mm 1 mps 748 mmHg 64%
10:00 +31°C° 0 mm 1 mps 748 mmHg 60%
11:00 +31°C° 0 mm 1 mps 748 mmHg 57%
12:00 +32°C° 0 mm 1 mps 747 mmHg 54%
13:00 +32°C° 0 mm 1 mps 747 mmHg 52%
14:00 +33°C° 0 mm 1 mps 747 mmHg 50%
15:00 +32°C° 0 mm 1 mps 746 mmHg 55%
16:00 +32°C° 0 mm 2 mps 746 mmHg 59%
17:00 +31°C° 0 mm 2 mps 745 mmHg 64%
18:00 +29°C° 0.1 mm 2 mps 745 mmHg 68%
19:00 +27°C° 0.1 mm 2 mps 746 mmHg 73%
20:00 +26°C° 0.1 mm 2 mps 746 mmHg 77%
21:00 +24°C° 0.4 mm 2 mps 746 mmHg 82%
22:00 +23°C° 0.4 mm 2 mps 746 mmHg 87%
23:00 +21°C° 0.4 mm 1 mps 746 mmHg 92%
Show more